Regional Weather Roundup
Issued by NWS Charleston, SC

Current Version | Previous Version | Graphics & Text | Print | Product List | Glossary On
Versions: 1 2 3 4 5 6 7 8 9 10 11 12 13 14 15 16 17 18 19 20 21 22 23 24 25 26 27 28 29 30 31 32 33 34 35 36 37 38 39 40 41 42 43 44 45 46 47 48 49 50
000
ASUS42 KCHS 021726
RWRCHS

REGIONAL WEATHER ROUNDUP
NATIONAL WEATHER SERVICE CHARLESTON SC
1200 PM EST MON MAR 02 2015

NOTE: "FAIR" INDICATES FEW OR NO CLOUDS BELOW 12,000 FEET WITH NO
SIGNIFICANT WEATHER AND/OR OBSTRUCTIONS TO VISIBILITY.

NOT ALL STATIONS ARE QUALITY CONTROLLED BY THE NATIONAL
WEATHER SERVICE. USE DATA WITH CAUTION...ESPECIALLY
DEWPOINT OBSERVATIONS.

SCZ027-030-031-034>040-042>050-021800-
...SOUTHEAST SOUTH CAROLINA...

CITY           SKY/WX    TMP DP  RH WIND       PRES   REMARKS
N CHARLESTON   PTSUNNY   61  55  82 W7        30.28F
WATERFRONT PRK   N/A     57 N/A N/A W6          N/A
MOUNT PLEASANT FAIR      61  55  82 W8        30.27F
PINOPOLIS        N/A     54  52  94 SW6       30.22R
MONCKS CORNER  FAIR      64  55  72 SW8       30.26F
SUMMERVILLE    PTSUNNY   61  55  82 SW6       30.28F
BEAUFORT MCAS  CLOUDY    57  53  86 NW9       30.30F
BEAUFORT ARPT  CLOUDY    59  59 100 NW7       30.29F
HILTON HEAD IS CLOUDY    59  57  94 SW5       30.31F
WALTERBORO     PTSUNNY   59  55  88 W5        30.29F
ALLENDALE      FAIR      63  55  77 VRB6      30.27F

...SOUTHERN MIDLANDS AND PEE DEE...

CITY           SKY/WX    TMP DP  RH WIND       PRES   REMARKS
GEORGETOWN     NOT AVBL
KINGSTREE      NOT AVBL
ORANGEBURG     PTSUNNY   60  53  77 SW7       30.27F
BARNWELL       FAIR      68  57  68 W10       30.27F
AIKEN          FAIR      64  55  72 SW9       30.29F
MANNING        FAIR      63  52  67 SW9       30.25F
COLUMBIA       PTSUNNY   69  57  65 VRB6      30.24F
SUMTER         PTSUNNY   60  54  80 W5        30.24F
FLORENCE       CLOUDY    53  50  89 NW8       30.27S
MYRTLE BEACH   PTSUNNY   61  54  77 NW12      30.28S
N MYRTLE BEACH PTSUNNY   59  52  77 NW7G17    30.26R

$$

GAZ063-065-086>088-099>101-113>116-118-119-134>141-150-021800-
...SOUTHEAST GEORGIA...

CITY           SKY/WX    TMP DP  RH WIND       PRES   REMARKS
SAVANNAH ARPT  PTSUNNY   64  55  72 NW7       30.30F
HUNTER AAF     MOSUNNY   64  61  88 NW6       30.27F
FORT STEWART   CLOUDY    62  61  96 W7        30.29F
STATESBORO     CLOUDY    63  60  91 W6        30.31F
SYLVANIA       MOSUNNY   60  57  89 W6        30.31F
CLAXTON        PTSUNNY   63  59  88 W5        30.32F

...CSRA...CENTRAL AND FAR SOUTHEAST GEORGIA...

CITY           SKY/WX    TMP DP  RH WIND       PRES   REMARKS
THOMSON        SUNNY     70  60  70 W9        30.31F
AUGUSTA-BUSH   SUNNY     66  54  65 SW10      30.28F
AUGUSTA-DANIEL SUNNY     68  55  63 W7        30.28F
SWAINSBORO     NOT AVBL
VIDALIA        CLOUDY    63  57  82 NW6       30.32F
EASTMAN        CLOUDY    61  61  99 NW6       30.36F
HAZLEHURST     CLOUDY    61  60  96 NW3       30.32F
ALMA           CLOUDY    59  55  87 NW3       30.33F
WAYCROSS       CLOUDY    66  61  85 W5        30.32F
JESUP          CLOUDY    68  63  83 W6        30.32F
BAXLEY         CLOUDY    61  57  88 SW5       30.32F
BRUNSWICK      CLOUDY    59  59 100 W5        30.32F
SAINT SIMONS   CLOUDY    58  55  90 CALM      30.32F FOG

$$

SCZ027-028-034-036>038-045-046-048>050-GAZ119-141-021800-
...LAKE AND SUPPLEMENTAL COASTAL OBSERVATIONS...

STATION/POSITION TIME  TEMP    WIND        PRES    WAVE   SWELL
                       AIR SEA DIR/SP/G            HT/PER HT/PER/DIR
                 (UTC) (F)     (DEG/KT/KT) (MB)    (FT/S) (FT/S/D)
UPR LAKE MARION  NOT AVBL
WINYAH BAY       1645   57     270/  9     1024.0S
LAKE MURRAY      1700   59      CALM  /  5 1024.0F
ACE BASIN NERRS  NOT AVBL
FORT PULASKI     1700   56 49  290/  5/  6 1026.5F
SAPELO ISLAND    1700   59     260/  3     1026.0F

$$

ANZ835-935-AMZ111-154-330-350-352-354-370-450-454-472-021800-
...C-MAN AND BUOY OBSERVATIONS...

STATION/POSITION TIME  TEMP    WIND        PRES    WAVE   SWELL
                       AIR SEA DIR/SP/G            HT/PER HT/PER/DIR
                 (UTC) (F)     (DEG/KT/KT) (MB)    (FT/S) (FT/S/D)
BUOY 41004       1650   57 68  280/ 14/ 16 1025.3F   4/ 8   3/ 8
BUOY 41008       1650   52 53  240/  4/  6 1026.9F   3/ 9   3/ 90/ 9
FOLLY BEACH CMAN 1700   50     220/  8/ 10 1026.0F
CAPERS NEARSHORE NOT AVBL
FRIPP NEARSHORE  1600   50     240/  4/  6 1025.5S


STATION/POSITION TIME  TEMP    WIND        PRES    WAVE   SWELL
                       AIR SEA DIR/SP/G            HT/PER HT/PER/DIR
                 (UTC) (F)     (DEG/KT/KT) (MB)    (FT/S) (FT/S/D)
5E ST. MARYS GA  1621      54                N/A     3/ 9
FRYING PAN BUOY  1650   56 61  250/ 16/ 17 1024.6F   4/ 9   3/110/ 9
BUOY 41025       NOT AVBL
CAPE LOOKOUT NC  1700   47     280/ 10/ 12 1024.1R
BUOY 41002       1650   71 73  280/ 10/ 12 1024.5F   5/ 9   5/100/ 9
BUOY 41010       1620   74 76  190/  6/  6 1026.2F
ST AUGUSTINE FL  1700   55     130/  2/  3 1027.1F


$$


USA.gov is the U.S. government's official web portal to all federal, state and local government web resources and services.